Overview Statistics Trail Chart Weather Telemetry Raw packets
 

This is the latest recevied weather packets stored in our database for station/object KC2GYU. If no packets are shown the sender has not sent any weather packets the latest 10 day(s).

<< 30 31 32 33 34 35 36 >>
Time Temp. Humidity Pressure Rain* Wind** Luminosity Snow
1777903289 18.33° C 61% 1015.6 hPa 0 mm - 506 W/m² -
1777902985 17.78° C 62% 1015.6 hPa 0 mm - 478 W/m² -
1777902682 17.78° C 62% 1015.6 hPa 0 mm - 482 W/m² -
1777902380 17.78° C 62% 1015.6 hPa 0 mm - 482 W/m² -
1777902076 17.22° C 63% 1015.9 hPa 0 mm - 465 W/m² -
1777901775 17.78° C 65% 1016 hPa 0 mm - 452 W/m² -
1777901472 17.78° C 65% 1016 hPa 0 mm - 446 W/m² -
1777901169 17.22° C 66% 1015.8 hPa 0 mm - 436 W/m² -
1777900867 16.67° C 67% 1016 hPa 0 mm - 419 W/m² -
1777900564 16.67° C 68% 1016 hPa 0 mm - 409 W/m² -
1777900261 16.11° C 70% 1015.9 hPa 0 mm - 396 W/m² -
1777899957 16.11° C 71% 1016 hPa 0 mm - 386 W/m² -
1777899654 16.11° C 71% 1016.3 hPa 0 mm - 367 W/m² -
1777899352 16.67° C 71% 1016.2 hPa 0 mm - 363 W/m² -
1777899049 16.11° C 72% 1016 hPa 0 mm - 350 W/m² -
1777898745 15.56° C 73% 1016.1 hPa 0 mm - 334 W/m² -
1777898444 15.56° C 74% 1016.5 hPa 0 mm - 314 W/m² -
1777898141 15.56° C 74% 1016.2 hPa 0 mm - 290 W/m² -
1777897838 15° C 75% 1016.2 hPa 0 mm - 264 W/m² -
1777897533 15° C 76% 1016.3 hPa 0 mm - 265 W/m² -
1777897229 15° C 76% 1016.6 hPa 0 mm - 247 W/m² -
1777896926 13.89° C 78% 1016.4 hPa 0 mm - 222 W/m² -
1777896623 14.44° C 79% 1016.6 hPa 0 mm - 77 W/m² -
1777896320 13.89° C 79% 1016.6 hPa 0 mm - 223 W/m² -
1777896019 13.33° C 81% 1016.6 hPa 0 mm - 91 W/m² -

* Rain latest hour (hover to see other rain measurements)
** Current wind speed in m/s (hover to see current wind gust speed)